Theta_e
348 349 349 349 348 348 350 347 348 352 355 354 353 353 352 353 351 351 343 344 343 344 344 342 338 338 339 341 341 342 342 341 341 342 341 340 341 342 342 342 343 344 344
348 349 349 350 348 348 350 347 350 353 351 353 352 353 353 353 351 349 349 341 343 343 342 342 342 343 343 341 341 342 341 342 342 342 341 341 339 339 340 341 342 342 342
348 351 349 347 348 349 348 348 351 352 354 352 353 354 353 353 350 350 349 348 343 341 342 343 343 343 343 343 342 341 340 339 339 338 339 340 340 340 341 340 340 341 342
348 344 348 348 346 350 347 347 352 354 352 351 353 353 352 351 349 348 348 347 347 346 341 341 341 342 341 341 341 341 340 339 337 335 334 338 339 339 338 337 336 336 337
350 349 350 351 348 348 349 347 352 352 352 352 353 351 353 351 349 349 348 347 348 347 345 342 338 335 338 340 339 338 336 334 331 330 327 328 333 335 335 336 335 333 332
350 347 352 351 351 348 350 349 352 351 352 354 353 353 351 350 350 347 347 346 344 343 342 340 341 336 331 335 334 333 333 335 335 335 328 329 328 325 324 328 331 333 337
350 351 353 353 350 347 348 351 349 349 354 353 353 353 349 350 349 347 346 344 341 339 337 335 334 334 333 330 332 331 330 334 333 333 333 330 330 325 329 326 328 332 337
348 349 349 350 351 350 352 352 348 352 349 354 355 353 351 348 348 346 345 340 340 338 335 332 332 333 333 327 319 318 322 327 327 326 324 323 321 324 322 324 326 330 336
342 345 350 346 350 347 349 348 349 351 350 352 351 353 350 349 349 346 343 340 340 337 334 332 331 326 330 328 325 314 313 317 323 325 322 320 319 316 313 313 315 320 329
345 343 347 346 346 345 349 345 345 340 350 352 354 350 350 349 350 348 344 342 340 338 335 332 329 327 325 317 314 312 311 311 311 314 318 319 320 318 313 310 308 311 319
343 341 340 340 336 344 347 345 336 342 351 351 352 350 350 351 349 348 345 341 340 338 336 332 328 327 327 324 315 315 313 312 311 310 309 308 307 307 308 308 308 309 313
348 340 340 342 336 346 347 348 345 338 352 349 351 347 348 348 347 350 347 342 341 338 336 334 329 328 325 319 317 316 316 315 314 312 311 310 309 307 310 312 308 307 314
349 347 342 338 336 343 343 347 346 339 350 350 347 349 345 347 345 347 347 345 342 339 337 335 331 328 327 324 318 318 318 318 317 315 314 312 311 308 306 305 305 306 312
350 348 347 347 344 342 340 340 343 352 353 350 352 350 347 346 344 345 349 347 343 342 339 335 334 330 327 326 319 319 319 319 319 317 315 313 312 310 308 305 305 305 307
349 348 348 350 343 340 341 348 351 353 350 349 351 344 343 345 345 344 342 346 343 344 343 338 335 331 328 324 324 324 320 319 320 319 316 315 314 314 311 307 305 305 305
349 350 351 351 346 342 346 350 349 349 349 351 346 347 346 345 345 344 343 340 345 344 344 340 338 333 329 327 325 326 322 320 319 320 318 316 316 316 314 311 307 306 305
347 350 351 349 347 341 344 349 348 351 351 351 343 336 335 344 344 343 341 339 339 341 342 342 338 334 331 328 326 326 324 324 321 319 318 317 316 316 316 314 311 309 308
347 347 349 347 345 346 347 344 347 352 351 350 343 333 333 341 344 342 338 338 341 341 342 339 336 334 333 331 330 328 328 326 325 323 319 318 317 315 316 316 313 311 310
347 346 347 347 345 346 344 344 346 350 350 347 338 328 334 343 336 339 337 335 341 340 342 338 340 336 333 332 332 331 329 329 328 327 324 319 318 316 315 315 314 313 312
348 346 347 345 346 348 344 347 347 349 348 342 331 325 339 338 339 332 329 335 337 339 338 338 335 334 335 333 332 331 329 329 329 326 324 324 322 319 317 314 316 314 313
348 346 346 345 348 349 349 347 348 348 341 338 329 322 334 333 327 334 340 339 338 336 333 331 330 331 331 334 331 332 331 331 331 327 327 326 324 322 322 321 316 315 315
348 346 345 345 348 348 348 345 341 344 340 333 320 317 328 317 320 328 337 338 333 329 328 328 329 328 329 328 329 330 329 331 327 325 326 326 322 320 321 321 321 319 315
348 346 345 346 347 348 339 342 336 340 334 323 316 318 320 327 318 318 329 329 326 327 330 329 331 330 332 328 327 324 326 329 328 328 325 323 324 319 320 319 320 318 312
348 346 347 347 345 340 342 343 334 337 331 322 317 317 328 327 324 317 321 325 322 321 322 322 327 331 327 319 317 317 327 329 328 326 321 322 321 319 322 321 321 315 309
347 347 347 348 344 339 342 335 331 335 327 319 314 313 321 320 314 319 331 332 329 323 317 317 321 313 311 310 310 324 325 324 323 322 321 319 321 319 321 322 322 319 317
346 348 348 343 342 342 332 335 329 331 325 316 312 313 311 311 312 317 330 325 317 313 313 311 311 310 310 309 309 314 323 322 323 322 321 317 320 319 321 321 320 318 318
Wind_Speed
3 4 2 5 5 8 10 10 10 9 11 13 12 9 15 15 12 16 22 18 20 19 20 20 19 17 18 16 16 15 14 13 13 13 13 12 11 12 11 10 6 5 9
4 1 2 4 5 7 7 9 9 10 11 8 10 11 10 12 16 15 17 18 18 19 19 19 18 18 16 15 15 14 15 15 14 13 12 11 12 11 11 10 9 7 7
6 1 3 4 3 5 9 9 9 8 8 7 8 3 12 13 14 14 15 18 17 17 18 18 17 16 16 15 15 14 14 13 13 12 12 12 13 12 12 11 11 10 9
7 4 4 1 3 4 6 8 9 5 6 8 6 9 10 13 14 14 13 12 15 14 19 17 16 16 17 16 15 14 12 10 10 9 8 8 9 9 10 11 12 12 11
7 7 3 1 1 3 5 7 8 4 8 7 7 8 10 11 13 12 15 15 15 15 15 18 15 17 13 14 14 12 12 11 12 12 9 8 8 10 10 12 12 11 12
7 10 6 4 0 3 4 5 7 2 5 10 6 7 9 11 11 11 15 14 14 13 13 14 14 18 13 12 12 15 17 18 17 17 14 13 11 10 10 9 11 15 18
8 9 8 1 2 3 5 5 4 6 3 2 5 8 8 13 11 12 11 11 13 14 13 14 12 11 17 15 16 15 18 20 20 21 21 18 17 15 15 12 10 12 17
12 9 11 3 7 4 5 6 4 6 1 2 4 4 5 9 11 11 8 11 13 11 14 16 15 15 14 16 13 14 18 20 20 21 21 20 19 18 14 14 15 14 14
17 15 12 14 6 5 4 8 5 6 5 2 3 5 2 4 12 8 8 8 11 11 12 15 15 15 14 15 16 18 18 18 21 21 21 20 20 18 17 17 16 16 15
17 17 16 15 12 9 10 6 6 5 10 3 3 1 2 5 3 7 6 8 9 9 10 11 13 15 17 19 20 20 19 20 21 22 22 22 22 21 20 19 18 19 17
17 18 20 18 15 13 10 11 10 6 6 4 0 1 1 4 6 9 10 9 7 7 8 9 12 13 14 15 19 19 20 22 23 23 23 22 22 21 20 19 19 19 19
15 19 20 19 16 11 12 12 9 8 8 4 3 2 3 3 3 11 12 12 9 7 7 8 9 11 11 15 16 18 19 21 21 22 23 24 24 22 20 20 19 19 20
16 16 15 19 17 16 14 12 10 8 9 5 5 1 5 2 1 2 11 12 9 8 7 6 7 9 9 10 13 14 15 17 18 19 21 22 23 23 22 20 19 19 19
17 13 17 17 17 16 15 13 10 7 11 6 4 6 7 4 4 3 11 13 11 8 9 8 7 6 7 8 9 11 11 12 13 16 18 20 21 22 23 23 22 21 20
16 20 19 14 13 13 15 10 9 15 10 6 3 3 7 5 6 6 5 8 11 13 9 9 9 9 9 7 10 5 7 8 9 11 14 16 17 19 22 23 24 23 20
19 17 15 13 11 12 12 12 13 11 8 5 3 6 8 5 6 6 5 6 4 7 6 13 11 10 8 8 10 6 2 4 6 7 10 13 14 16 19 21 22 22 22
22 18 14 14 14 14 14 13 11 9 8 9 10 7 11 12 5 6 6 6 7 6 8 11 13 12 12 10 8 9 3 3 6 7 7 8 10 12 14 16 17 18 20
21 20 16 15 14 15 15 11 10 7 8 6 7 7 7 8 12 10 6 8 5 9 8 12 10 14 11 11 9 6 4 7 8 7 9 6 7 8 8 9 12 14 17
23 21 19 16 15 14 12 12 9 10 9 7 9 8 9 8 12 7 10 8 6 7 10 12 11 9 11 10 9 7 6 7 7 11 11 5 6 6 5 5 7 11 14
23 23 18 17 15 11 10 10 11 11 9 9 8 9 8 8 7 10 8 11 10 9 12 11 11 12 10 13 9 8 5 7 10 7 7 11 11 9 9 6 5 5 8
22 24 19 17 14 14 11 12 13 11 10 9 9 10 8 11 11 12 8 11 14 11 11 11 11 11 10 12 12 10 9 6 8 10 8 10 11 12 9 11 8 5 9
21 23 23 20 17 15 17 14 10 11 12 11 10 11 13 11 12 15 14 15 16 12 12 10 10 11 12 11 10 9 10 9 9 9 10 10 9 7 9 12 12 12 12
19 21 22 20 19 17 14 12 13 10 10 10 11 11 8 10 13 15 16 16 16 15 15 16 10 11 12 13 11 16 12 11 8 8 10 8 11 6 7 12 15 15 14
18 20 19 20 21 17 12 11 14 13 10 12 12 12 12 18 12 15 16 15 14 14 14 11 12 10 14 13 17 14 11 12 12 10 11 6 9 4 6 11 12 12 9
17 17 18 21 20 16 11 9 12 10 12 13 14 16 17 15 15 16 13 13 12 16 13 14 13 11 12 10 13 10 9 9 7 7 12 9 7 5 6 7 12 13 12
15 15 15 17 16 14 11 10 15 10 12 12 15 15 15 15 16 17 16 15 14 13 13 13 12 11 11 10 11 13 9 10 8 8 11 7 7 6 8 8 7 12 10
Wind_Direction
301 288 2 0 7 6 7 0 2 351 33 37 62 52 72 40 57 69 56 65 72 76 76 75 75 75 76 76 77 75 70 65 61 57 53 48 43 38 40 33 18 310 288
221 286 301 322 350 350 9 3 11 2 43 57 61 63 72 68 61 52 62 59 73 75 75 74 72 69 69 69 68 65 63 59 57 53 52 46 46 43 40 32 28 26 13
255 142 288 311 328 355 14 13 13 40 42 56 76 55 82 83 75 56 59 72 59 67 68 67 66 64 63 61 62 61 60 56 52 50 48 47 51 50 49 39 35 27 14
212 244 276 296 334 5 5 18 11 26 70 69 74 79 78 88 89 88 83 77 78 61 62 55 60 60 56 54 56 54 48 42 35 31 37 47 46 46 40 31 27 21 17
236 233 248 243 12 354 351 17 11 13 86 101 80 97 104 106 101 87 87 83 62 55 35 32 33 32 52 55 49 37 32 32 42 45 45 43 43 43 44 41 34 21 11
221 236 274 248 134 295 356 2 18 37 67 94 99 104 106 102 92 89 89 83 69 68 62 52 16 29 48 63 49 45 56 61 60 58 53 54 50 42 33 30 30 30 27
233 236 272 164 259 281 282 340 12 357 67 164 116 100 110 105 106 97 102 82 77 73 64 51 77 59 45 58 72 67 60 61 60 61 62 60 58 55 53 46 37 38 33
234 248 239 242 268 281 298 302 347 337 240 219 197 157 134 108 102 113 97 91 81 73 61 65 70 78 56 51 54 57 61 61 59 59 58 57 58 59 59 54 49 52 53
238 234 222 228 255 265 300 292 300 332 324 260 228 275 218 164 117 100 89 87 84 67 59 59 63 78 102 85 63 62 61 65 64 61 60 58 56 55 54 54 53 58 57
229 233 234 241 251 249 251 290 311 310 314 282 321 264 251 159 174 133 119 104 88 84 76 68 74 74 70 73 72 69 66 65 65 64 62 60 57 53 52 52 54 59 64
239 230 231 238 249 269 258 267 259 290 296 279 280 178 315 183 146 153 142 136 110 92 82 79 85 85 82 79 77 74 70 68 66 64 62 59 54 52 52 51 53 57 60
254 231 234 239 253 256 257 250 272 291 285 253 175 241 241 271 170 161 145 149 138 125 105 94 94 99 100 92 83 79 74 70 67 64 62 59 55 54 56 55 53 55 59
222 248 243 246 253 252 252 239 253 258 261 240 163 214 199 224 167 46 161 151 148 138 132 112 110 107 108 100 88 81 76 69 64 61 59 56 54 52 50 53 56 61 62
222 227 247 253 247 251 249 226 246 253 250 224 201 211 175 219 191 169 175 149 157 170 152 143 137 130 126 119 92 88 77 69 62 57 55 53 50 49 52 54 56 58 61
218 224 237 258 244 233 216 218 233 232 236 199 222 230 164 207 200 196 198 212 182 171 181 172 163 154 177 171 102 122 75 70 62 53 47 47 46 47 51 52 52 54 56
205 215 219 226 239 207 197 216 228 234 225 165 212 210 188 189 201 203 209 207 205 187 164 163 180 172 155 165 151 159 78 84 65 51 41 37 36 40 45 49 51 53 53
214 210 215 217 217 212 201 219 223 218 204 208 211 230 188 189 180 205 202 202 199 198 162 143 178 184 177 160 165 193 71 169 30 29 27 25 25 31 40 44 46 48 51
217 213 212 214 206 209 213 219 219 221 206 223 228 238 204 186 182 192 177 194 201 189 199 170 190 188 177 188 179 174 205 215 278 338 355 358 8 14 24 37 41 40 41
216 210 209 203 203 206 210 218 216 220 216 225 236 213 189 191 181 210 184 206 207 179 156 173 169 185 188 193 202 184 180 215 266 281 316 320 351 342 346 10 24 25 28
214 205 201 204 204 204 213 216 217 219 211 218 218 202 198 192 198 216 184 174 182 171 175 176 184 182 184 198 199 206 218 228 236 265 307 322 327 336 326 332 318 345 10
213 207 201 203 203 199 211 204 204 219 212 211 206 209 200 197 195 172 180 171 182 166 170 178 180 188 189 195 207 213 231 215 210 213 262 270 316 321 314 311 298 333 345
211 209 205 204 198 189 193 214 211 203 202 211 220 193 213 199 195 179 177 181 167 175 176 182 190 194 196 201 204 207 204 210 227 241 222 239 232 250 267 294 277 300 319
204 205 204 203 195 192 197 212 209 198 207 216 217 204 183 207 198 192 194 192 188 188 191 188 182 193 210 200 210 204 206 216 213 228 250 235 236 259 252 255 267 285 286
201 195 195 199 195 193 204 217 201 199 193 212 210 191 163 218 196 195 195 199 201 204 210 196 224 216 208 224 209 196 218 203 220 220 244 236 233 253 243 252 276 291 300
195 193 189 186 186 192 202 221 205 198 210 214 211 194 199 207 200 185 180 189 187 207 210 211 222 225 216 214 195 193 204 202 217 237 248 220 247 227 254 249 282 291 312
190 171 178 189 201 201 210 224 217 195 220 208 203 207 207 204 197 190 184 201 208 215 213 213 213 206 202 209 207 192 200 207 223 230 238 222 232 233 254 236 239 281 312